Location: Sevilla
(37.3933°N, 5.9839°W)
Time: 03:28:36
(UTC+02:00)

Tiros 1 despin weight - Pass Details

Date: 30 June 2024
Orbit: 576 x 620 km, 48.2° (Epoch: 22 July)

Event Time Altitude Azimuth Distance (km) Brightness Sun altitude
Rises 16:17:26 0° 306° (NW) 2,895 ? 62.5°
Reaches altitude 10° 16:19:53 10° 314° (NW) 1,988 ? 62.1°
Maximum altitude 16:24:12 40° 24° (NNE) 917 ? 61.3°
Drops below altitude 10° 16:28:29 10° 95° (E) 1,976 ? 60.5°
Sets 16:30:54 0° 103° (ESE) 2,875 ? 60.0°
